Погода в Термезе

Погода в Термезе : погода сейчас, прогноз погоды и архив. Всё, что Вы хотите узнать о погоде в Термезе!

Поиск расширенной информации на нашем сайте:

Другие новости

Новости СМИ2

Главная страница сайта

Новости сайта

03.07.2017

Напоминаем, что на нашем специализированном сайте Метеоцентр.Азия вы можете получить высокодетализированные автоматические прогнозы погоды по пунктам России, СНГ и мира в авиационном формате (включающие направление и скорость ветра, видимость, явления погоды, количество и форму облачности, нижнюю и верхнюю границу облачности).


Погода в Термезе - сегодня

Время (UTC), дата Ветер
(°,м/с) 
Видим.   Явления Облачность Т
(°С)
Тd
(°С)
f(%) Тe
(°С)
Pmin
(гПа)
dP
(гПа)
Po
(мм)
O2
(г/м3)
Тmin Tmax R s Состояние
почвы
18 17.11.17 040 (СВ) 2400 м  дымка  ясно 
+6.5 +6.1 97 +7  1026.1  741  291    +16.2       
21 17.11.17 тихо ()   1100 м  дымка  ясно 
+5.5 +4.3 92 +6  1025.9  -0.4  741  292           
00 18.11.17 270 (З) 0100 м  туман  ясно 
+3.6 +3.6 100 +4  1026.6  0.4  741  294           
03 18.11.17 тихо ()   <0100 м  туман  ясно 
+1.2 +1.2 100 +1  1028.5  1.6  742  298           
06 18.11.17 260 (З) 6000 м  дымка{туман}  3/0 средняя 
[Ac trans]
+10.3 +7.6 83 +11  1028.9  1.6  743  287  +0.9         
09 18.11.17 230 (ЮЗ) 10 км    3/3 600 м 
[Cu hum]
+14.5 +7.4 62 +15  1027.5  -0.8  743  283           
12 18.11.17 240 (ЮЗ) 10 км    ясно 
+12.8 +7.4 70 +13  1028.5  0.8  743  285           
15 18.11.17 220 (ЮЗ) 2900 м  дымка  5/0 средняя 
[Ac trans]
+9.6 +7.6 87 +11  1030.1  1.1  744  288    +14.7       
18 18.11.17 050 (СВ) 0300 м  туман  5/0 средняя 
[Ac trans]
+7 +6.5 97 +8  1031.3  0.8  745  292    +14.7       
21 18.11.17 060 (СВ) 0100 м  туман  5/0 средняя 
[Ac trans]
+5 +4.1 94 +6  1001.2  -0.4  745  294           
00 19.11.17 040 (СВ) 0800 м  туман  5/0 средняя 
[Ac trans]
+4.3 +3.6 95 +4  1030.7  -0.6  744  295           
03 19.11.17 040 (СВ) 0100 м  туман  ?/? 30 
[]
+3.1 +3.1 100 +3  1031.2  0.3  744  296           
06 19.11.17 040 (СВ) 4000 м  дымка{туман}  ясно 
+10 +8.4 90 +11  1030.5  0.3  745  288  +3.1         
09 19.11.17 050 (СВ) 9000 м  дымка  ясно 
+16.4 +4.8 46 +17  1026.7  -2.9  742  281           
12 19.11.17 050 (СВ) 10 км    ясно 
+15.4 +4.8 49 +17  1025.4  -1.4  741  282           
15 19.11.17 040 (СВ) 2400 м  дымка  ясно 
+10.5 +6.7 77 +12  1025.5  -0.4  741  286    +17.1       
18 19.11.17 020 (С) 3500 м  дымка  ясно 
+8 +5.8 86 +9  1025.9  741  289    +17.1       
21 19.11.17 030 (СВ) 2500 м  дымка  ясно 
+5.7 +3.8 88 +5  1025.7  -0.4  741  292           
00 20.11.17 030 (СВ) 2300 м  дымка  ясно 
+4.6 +3.4 92 +4  1025.7  -0.3  741  293           
03 20.11.17 040 (СВ) 2400 м  дымка  ясно 
+4.2 +2.7 90 +4  1026.4  0.6  741  294           
06 20.11.17 050 (СВ) 6000 м  мгла  ясно 
+11.6 +4.5 62 +13  1025.9  0.6  741  286  +3         
09 20.11.17 120 (ЮВ) 10 км    ясно 
+18 +1.3 33 +19  1022.8  -2.2  740  279           
12 20.11.17 тихо ()   10 км    ясно 
+17 +1.9 36 +17  1022  -0.9  739  280           
15 20.11.17 тихо ()   6000 м  мгла  3/0 верхняя 
[Ci fib]
+10.5 +3.4 61 +11  1023.7  0.7  740  286    +18.9       
18 20.11.17 050 (СВ) 4000 м  дымка  ясно 
+6.1 +3 80 +6  1024.1  -0.1  740  291    +18.9       
Время (UTC), дата Ветер
(°,м/с) 
Видим.   Явления Облачность Т
(°С)
Тd
(°С)
f(%) Тe
(°С)
Pmin
(гПа)
dP
(гПа)
Po
(мм)
O2
(г/м3)
Тmin Tmax R s Состояние
почвы

Для получения пояснительной информации подведите курсор к названию столбца.

ПОГОДА в Термезе - архив

Всё, что Вы хотите узнать о погоде в Термезе - удобно и подробно!

Выберите нужную дату (начиная с 1 января 2015* года) и нажмите кнопку "Найти".
Будут отображены архивные сводки погоды по пункту Термез, начиная с указанной даты.


Отображать данные в формате CSV (для использования в таблицах Excel)


Внимание! Наш архив погоды предназначен исключительно для личного некоммерческого использования в познавательных целях. Если Вам необходимы официальные справки о состоянии погоды (для производственных, юридических, коммерческих и т.п. целей), обращайтесь в органы Росгидромета.

*Примечание: данная дата относится к архиву по метеостанциям СССР (Россия, СНГ, Балтия).
Архив по метеостанциям Зарубежной Европы и Азии (кроме Китая) хранится 10 дней, по другим регионам земного шара (Китай, Африка, Америка, Австралия, Океания) - 1 день.

Термез - район местоположения метеостанции


Название, широта, долгота, высота метеостанции:
Термез 37.2°ш. 67.3°д. 310 м над ур. моря [Узбекистан]

Дополнительная информация

В oтличие oт бoльшинства пoгoдных сайтoв мы публикуем пoдрoбную метеoинфoрмацию в детальнoм прoфессиoнальнoм фoрмате.

Характеристики температуры и влажнoсти вoздуха измеряются на высoте 2 м в тени вдали oт зданий и деревьев.
Скoрoсть ветра измеряется на высoте 10 м (на урoвне рoста челoвека скoрoсть ветра ниже в 1.5-2 раза). Если метеoстанция нахoдится в гoрoде или в лесу, тo скoрoсть ветра занижена на 2-4 м/с пo сравнению с oткрытым местoм. Скoрoсть ветра над акватoриями крупных рек и oзёр, а также на вершинах хoлмoв на 2-5 м/с выше, чем в oбычных услoвиях.
Атмoсфернoе давление в разных тoчках местнoсти мoжет значительнo oтличаться oт давления на метеoстанции, в зависимoсти oт услoвий рельефа (при пoдъёме на 10 м давление пoнижается примернo на 1 мм рт.ст.).